Weather History for LEBA - May, 2014

Change the Weather History Date:

Saturday, May 24, 2014

  Actual Average Record
Temperature  
Mean Temperature 64 °F -  
Max Temperature 82 °F - - ()
Min Temperature 45 °F - - ()
Degree Days  
Heating Degree Days 2    
Growing Degree Days 14 (Base 50)    
Moisture  
Dew Point 42 °F    
Average Humidity 47    
Maximum Humidity 95    
Minimum Humidity 10    
Precipitation  
Precipitation 0.00 in 0.03 in - ()
Sea Level Pressure  
Sea Level Pressure 29.94 in    
Wind  
Wind Speed 2 mph ()    
Max Wind Speed 12 mph    
Max Gust Speed -    
Visibility 19.0 miles    
Events      
T = Trace of Precipitation, MM = Missing Value Source: Averaged Metar Reports

Daily Weather History Graph

Daily Weather History Graph

Search for Another Location

Airport or City:

Trip Planner

Search our weather history database for the weather conditions in past years. The results will help you decide how hot, cold, wet, or windy it might be!

Date:

Astronomy

May. 24, 2014 Rise Set
Actual Time 7:02 AM CEST 9:29 PM CEST
Civil Twilight 6:32 AM CEST 10:00 PM CEST
Nautical Twilight 5:55 AM CEST 10:37 PM CEST
Astronomical Twilight 5:14 AM CEST 11:18 PM CEST
Moon 4:18 AM CEST (5/24) 5:16 PM CEST (5/24)
Length of Visible Light 15h 27m
Length of Day
14h 26m
Waning Crescent, 20% of the Moon is Illuminated
May 24
Waning Crescent
May 28
New
Jun 5
First Quarter
Jun 13
Full
Jun 19
Last Quarter

Hourly Weather History & Observations

Time (CEST) Temp. Dew Point Humidity Pressure Visibility Wind Dir Wind Speed Gust Speed Precip Events Conditions
12:00 AM 57 °F 50 °F 69% 30.00 in - Calm Calm - -  
1:00 AM 54 °F 49 °F 77% 29.99 in - Calm Calm - -  
2:00 AM 53 °F 48 °F 79% 29.99 in - SSW 1.2 mph - -  
3:00 AM 51 °F 47 °F 83% 29.97 in - Calm Calm - -  
4:00 AM 49 °F 46 °F 87% 29.96 in - Calm Calm - -  
5:00 AM 48 °F 46 °F 89% 29.96 in - Calm Calm - -  
6:00 AM 47 °F 45 °F 89% 29.96 in - Calm Calm - -  
7:00 AM 46 °F 45 °F 94% 29.96 in - Calm Calm - -  
8:00 AM 47 °F 46 °F 95% 29.97 in 25 mi Calm Calm - -   Scattered Clouds
9:00 AM 56 °F 49 °F 72% 29.96 in - Calm Calm - -  
10:00 AM 64 °F 47 °F 42% 29.96 in - East 2.3 mph - -  
11:00 AM 69 °F 44 °F 30% 29.96 in 25 mi East 2.3 mph - -   Scattered Clouds
12:00 PM 74 °F 42 °F 21% 29.94 in - ENE 4.6 mph - -  
1:00 PM 77 °F 37 °F 14% 29.93 in - ENE 3.5 mph - -  
3:00 PM 80 °F 36 °F 11% 29.90 in - NNW 4.6 mph - -  
4:00 PM 81 °F 35 °F 10% 29.89 in - West 6.9 mph - -  
5:00 PM 82 °F 35 °F 10% 29.88 in 25 mi West 8.1 mph - -   Scattered Clouds
6:00 PM 81 °F 35 °F 10% 29.87 in - WSW 11.5 mph - -  
7:00 PM 79 °F 35 °F 11% 29.88 in - WSW 11.5 mph - -  
8:00 PM 77 °F 37 °F 14% 29.88 in 25 mi WSW 11.5 mph - -   Scattered Clouds
9:00 PM 72 °F 38 °F 18% 29.91 in - WSW 9.2 mph - -  
10:00 PM 67 °F 40 °F 26% 29.94 in - SW 9.2 mph - -  
11:00 PM 65 °F 42 °F 31% 29.97 in 19 mi WSW 9.2 mph - -   Clear